Flag for U.S.A. Weather past 2 weeks in Mountain View, California, U.S.A.

Now
62 °F

Sunny.


Feels Like: 62 °F
Forecast: 49 / 74 °F
Wind: 8 mph from North

Location: Moffett Field

Current Time: Mar 28, 2015 at 8:19:17 PM

Latest Report: Mar 28, 2015 at 7:56 PM


Visibility: 10 mi

Pressure: 30.09 "Hg

Humidity: 70%

Dew point: 52 °F

Location of Mountain ViewLocation

Historic Weather in Mountain View — Graph

°F

Mountain View temperature yesterday

Maximum temperature yesterday: 66 °F (at 3:56 PM)
Minimum temperature yesterday: 56 °F (at 5:56 AM)
Average temperature yesterday: 60 °F

Past Weeks' High & Low Weather Summary

 TemperatureHumidityPressure
High82 °F (Mar 14, 2:56 PM)90% (Mar 23, 1:56 AM)30.33 "Hg (Mar 23, 1:56 AM)
Low48 °F (Mar 18, 4:56 AM)27% (Mar 19, 12:56 PM)29.97 "Hg (Mar 14, 6:56 PM)
Average62 °F65%30.13 "Hg
* Reported Mar 13 6:56 PM — Mar 28 6:56 PM, Mountain View, Weather by CustomWeather, © 2015

Note: Actual official high and low records may vary slightly from our data, if they occured in-between our weather recording intervals... More about our weather records

Advertising

Mountain View weather history for previous 24 hours

 ConditionsComfort  
Time TempWeatherWind HumidityBarometerVisibility
6:56 PM
Sat, Mar 28
66 °FSunny.12 mph59%30.08 "Hg10 mi
5:56 PM71 °FSunny.14 mph53%30.08 "Hg10 mi
4:56 PM76 °FSunny.10 mph36%30.08 "Hg10 mi
3:56 PM78 °FSunny.12 mph33%30.09 "Hg10 mi
2:56 PM75 °FSunny.14 mph37%30.11 "Hg10 mi
1:56 PM75 °FSunny.14 mph42%30.13 "Hg10 mi
12:56 PM73 °FSunny.5 mph37%30.16 "Hg10 mi
11:56 AM70 °FSunny.5 mph42%30.19 "Hg10 mi
10:56 AM66 °FSunny.5 mph54%30.21 "Hg10 mi
9:56 AM61 °FSunny.6 mph70%30.20 "Hg10 mi
8:56 AM58 °FSunny.No wind81%30.19 "Hg10 mi
7:56 AM53 °FClear.No wind86%30.19 "Hg10 mi
6:56 AM52 °FClear.No wind86%30.17 "Hg10 mi
5:56 AM51 °FClear.No wind86%30.17 "Hg10 mi
4:56 AM52 °FClear.No wind83%30.16 "Hg10 mi
3:56 AM52 °FClear.No wind86%30.17 "Hg10 mi
2:56 AM54 °FClear.No wind80%30.18 "Hg10 mi
1:56 AM55 °FClear.3 mph80%30.18 "Hg10 mi
12:56 AM56 °FClear.No wind81%30.19 "Hg10 mi
11:56 PM
Fri, Mar 27
57 °FClear.3 mph78%30.19 "Hg10 mi
10:56 PM57 °FClear.No wind74%30.19 "Hg10 mi
9:56 PM58 °FClear.No wind70%30.19 "Hg10 mi
8:56 PM57 °FClear.10 mph78%30.18 "Hg10 mi
Weather by CustomWeather, © 2015

See weather overviewHow to use our weather pages